Time,TemperatureF,DewpointF,PressureIn,WindDirection,WindDirectionDegrees,WindSpeedMPH,WindSpeedGustMPH,Humidity,HourlyPrecipIn,Conditions,Clouds,dailyrainin,SoftwareType,DateUTC
2014-09-23 00:04:00,52.2,51.1,30.10,ENE,66,0.0,0.0,96,0.00,,,0.00,Custom v0.1,2014-09-23 05:04:00,
2014-09-23 00:09:00,52.0,50.9,30.10,ENE,66,0.0,0.0,96,0.00,,,0.00,Custom v0.1,2014-09-23 05:09:00,
2014-09-23 00:14:00,52.0,50.9,30.10,ENE,66,0.0,0.0,96,0.00,,,0.00,Custom v0.1,2014-09-23 05:14:00,
2014-09-23 00:19:00,51.9,50.8,30.10,ENE,66,0.0,0.0,96,0.00,,,0.00,Custom v0.1,2014-09-23 05:19:00,
2014-09-23 00:24:00,51.7,50.6,30.10,ENE,66,0.0,0.0,96,0.00,,,0.00,Custom v0.1,2014-09-23 05:24:00,
2014-09-23 00:29:00,51.6,50.5,30.10,ENE,66,0.0,0.0,96,0.00,,,0.00,Custom v0.1,2014-09-23 05:29:00,
2014-09-23 00:34:00,51.4,50.3,30.10,ENE,66,0.0,0.0,96,0.00,,,0.00,Custom v0.1,2014-09-23 05:34:00,
2014-09-23 00:39:00,51.1,50.0,30.10,ENE,66,0.0,0.0,96,0.00,,,0.00,Custom v0.1,2014-09-23 05:39:00,
2014-09-23 00:44:00,51.0,49.9,30.10,ENE,66,0.0,0.0,96,0.00,,,0.00,Custom v0.1,2014-09-23 05:44:00,
2014-09-23 00:49:00,50.8,49.7,30.10,ENE,66,0.0,0.0,96,0.00,,,0.00,Custom v0.1,2014-09-23 05:49:00,
2014-09-23 00:54:00,50.7,49.6,30.10,ENE,66,0.0,0.0,96,0.00,,,0.00,Custom v0.1,2014-09-23 05:54:00,
2014-09-23 00:59:00,50.5,49.4,30.10,ENE,66,0.0,0.0,96,0.00,,,0.00,Custom v0.1,2014-09-23 05:59:00,
2014-09-23 01:04:00,50.5,49.4,30.10,ENE,66,0.0,0.0,96,0.00,,,0.00,Custom v0.1,2014-09-23 06:04:00,
2014-09-23 01:09:00,50.4,49.3,30.10,ENE,66,0.0,0.0,96,0.00,,,0.00,Custom v0.1,2014-09-23 06:09:00,
2014-09-23 01:14:00,50.2,49.1,30.10,ENE,66,0.0,0.0,96,0.00,,,0.00,Custom v0.1,2014-09-23 06:14:00,
2014-09-23 01:19:00,50.1,49.0,30.10,ENE,66,0.0,0.0,96,0.00,,,0.00,Custom v0.1,2014-09-23 06:19:00,
2014-09-23 01:24:00,49.9,48.8,30.10,ENE,66,0.0,0.0,96,0.00,,,0.00,Custom v0.1,2014-09-23 06:24:00,
2014-09-23 01:34:00,49.6,48.5,30.10,ENE,66,0.0,0.0,96,0.00,,,0.00,Custom v0.1,2014-09-23 06:34:00,
2014-09-23 01:39:00,49.4,48.3,30.10,ENE,66,0.0,0.0,96,0.00,,,0.00,Custom v0.1,2014-09-23 06:39:00,
2014-09-23 01:44:00,49.2,48.1,30.10,ENE,66,0.0,0.0,96,0.00,,,0.00,Custom v0.1,2014-09-23 06:44:00,
2014-09-23 01:49:00,49.1,48.3,30.10,ENE,66,0.0,0.0,97,0.00,,,0.00,Custom v0.1,2014-09-23 06:49:00,
2014-09-23 01:54:00,48.9,48.1,30.10,ENE,66,0.0,0.0,97,0.00,,,0.00,Custom v0.1,2014-09-23 06:54:00,
2014-09-23 01:59:00,48.9,48.1,30.10,ENE,66,0.0,0.0,97,0.00,,,0.00,Custom v0.1,2014-09-23 06:59:00,
2014-09-23 02:04:00,48.9,48.1,30.10,ENE,66,0.0,0.0,97,0.00,,,0.00,Custom v0.1,2014-09-23 07:04:00,
2014-09-23 02:09:00,49.2,48.4,30.10,ENE,66,0.0,0.0,97,0.00,,,0.00,Custom v0.1,2014-09-23 07:09:00,
2014-09-23 02:14:00,49.4,48.6,30.10,ENE,66,0.0,0.0,97,0.00,,,0.00,Custom v0.1,2014-09-23 07:14:00,
2014-09-23 02:19:00,49.4,48.6,30.09,ENE,66,0.0,0.0,97,0.00,,,0.00,Custom v0.1,2014-09-23 07:19:00,
2014-09-23 02:24:00,49.4,48.6,30.09,ENE,66,0.0,0.0,97,0.00,,,0.00,Custom v0.1,2014-09-23 07:24:00,
2014-09-23 02:29:00,49.4,48.6,30.09,ENE,66,0.0,0.0,97,0.00,,,0.00,Custom v0.1,2014-09-23 07:29:00,
2014-09-23 02:34:00,49.2,48.4,30.09,ENE,66,0.0,0.0,97,0.00,,,0.00,Custom v0.1,2014-09-23 07:34:00,
2014-09-23 02:39:00,49.2,48.4,30.09,ENE,66,0.0,0.0,97,0.00,,,0.00,Custom v0.1,2014-09-23 07:39:00,
2014-09-23 02:44:00,49.1,48.3,30.09,ENE,66,0.0,0.0,97,0.00,,,0.00,Custom v0.1,2014-09-23 07:44:00,
2014-09-23 02:49:00,49.1,48.3,30.08,ENE,66,0.0,0.0,97,0.00,,,0.00,Custom v0.1,2014-09-23 07:49:00,
2014-09-23 02:54:00,49.1,48.3,30.08,ENE,66,0.0,0.0,97,0.00,,,0.00,Custom v0.1,2014-09-23 07:54:00,
2014-09-23 02:59:00,49.1,48.3,30.08,ENE,66,0.0,0.0,97,0.00,,,0.00,Custom v0.1,2014-09-23 07:59:00,
2014-09-23 03:04:00,49.4,48.8,30.08,ENE,66,0.0,0.0,98,0.00,,,0.00,Custom v0.1,2014-09-23 08:04:00,
2014-09-23 03:09:00,49.8,49.2,30.08,ENE,66,0.0,0.0,98,0.00,,,0.00,Custom v0.1,2014-09-23 08:09:00,
2014-09-23 03:14:00,49.6,48.8,30.08,ENE,66,0.0,0.0,97,0.00,,,0.00,Custom v0.1,2014-09-23 08:14:00,
2014-09-23 03:19:00,49.4,48.6,30.09,ENE,66,0.0,0.0,97,0.00,,,0.00,Custom v0.1,2014-09-23 08:19:00,
2014-09-23 03:24:00,49.1,48.3,30.09,ENE,66,0.0,0.0,97,0.00,,,0.00,Custom v0.1,2014-09-23 08:24:00,
2014-09-23 03:29:00,48.9,48.1,30.09,ENE,66,0.0,0.0,97,0.00,,,0.00,Custom v0.1,2014-09-23 08:29:00,
2014-09-23 03:34:00,48.8,48.0,30.09,ENE,66,0.0,0.0,97,0.00,,,0.00,Custom v0.1,2014-09-23 08:34:00,
2014-09-23 03:39:00,48.8,48.0,30.09,ENE,66,0.0,0.0,97,0.00,,,0.00,Custom v0.1,2014-09-23 08:39:00,
2014-09-23 03:44:00,48.8,48.0,30.09,ENE,66,0.0,0.0,97,0.00,,,0.00,Custom v0.1,2014-09-23 08:44:00,
2014-09-23 03:49:00,48.6,47.8,30.09,ENE,66,0.0,0.0,97,0.00,,,0.00,Custom v0.1,2014-09-23 08:49:00,
2014-09-23 03:54:00,48.6,47.8,30.09,ENE,66,0.0,0.0,97,0.00,,,0.00,Custom v0.1,2014-09-23 08:54:00,